Salinas, CA

7:55 PM PST on December 15, 2017 (GMT -0800)
Salinas Municipal

Weather History for KSNS - February, 2013

Change the Weather History Date:

Thursday, February 21, 2013

  Actual Average Record
Temperature  
Mean Temperature 49 °F 53 °F  
Max Temperature 58 °F 63 °F 80 °F (1995)
Min Temperature 39 °F 44 °F 30 °F (1953)
Degree Days  
Heating Degree Days 16 12  
Month to date heating degree days 305 258  
Since 1 July heating degree days 1655 1736  
Cooling Degree Days 0 0  
Month to date cooling degree days 0 0  
Year to date cooling degree days 0 0  
Moisture  
Dew Point 38 °F    
Average Humidity 70    
Maximum Humidity 92    
Minimum Humidity 47    
Precipitation  
Precipitation 0.00 in 0.09 in 0.76 in (1998)
Month to date precipitation 0.56 1.88  
Year to date precipitation 1.60 4.48  
Since 1 July precipitation 8.24  
Sea Level Pressure  
Sea Level Pressure 30.14 in    
Wind  
Wind Speed 5 mph (West)    
Max Wind Speed 17 mph    
Max Gust Speed 21 mph    
Visibility 10 miles    
Events      
T = Trace of Precipitation, MM = Missing Value Source: NWS Daily Summary

Daily Weather History Graph

Daily Weather History Graph

Search for Another Location

Airport or City:

Trip Planner

Search our weather history database for the weather conditions in past years. The results will help you decide how hot, cold, wet, or windy it might be!

Date:

Astronomy

Feb. 21, 2013 Rise Set
Actual Time 6:47 AM PST 5:53 PM PST
Civil Twilight 6:20 AM PST 6:19 PM PST
Nautical Twilight 5:50 AM PST 6:49 PM PST
Astronomical Twilight 5:20 AM PST 7:19 PM PST
Moon 2:17 PM PST (2/21) 3:51 AM PST (2/21)
Length of Visible Light 11h 58m
Length of Day
11h 06m
Waxing Gibbous, 84% of the Moon is Illuminated
Feb 21
Waxing Gibbous
Feb 25
Full
Mar 4
Last Quarter
Mar 11
New
Mar 19
First Quarter

Hourly Weather History & Observations

Time (PST) Temp. Windchill Dew Point Humidity Pressure Visibility Wind Dir Wind Speed Gust Speed Precip Events Conditions
12:53 AM 45.0 °F 42.6 °F 39.9 °F 82% 30.12 in 10.0 mi SW 4.6 mph - N/A   Clear
1:53 AM 44.1 °F - 39.0 °F 82% 30.12 in 10.0 mi Calm Calm - N/A   Mostly Cloudy
2:46 AM 42.8 °F - 39.2 °F 87% 30.09 in 9.0 mi Calm Calm - N/A   Scattered Clouds
3:44 AM 42.8 °F - 37.4 °F 81% 30.08 in 9.0 mi Calm Calm - N/A   Mostly Cloudy
3:53 AM 42.1 °F - 37.9 °F 85% 30.11 in 9.0 mi Calm Calm - N/A   Mostly Cloudy
4:04 AM 41.0 °F - 37.4 °F 87% 30.07 in 9.0 mi Calm Calm - N/A   Mostly Cloudy
4:21 AM 41.0 °F - 37.4 °F 87% 30.08 in 9.0 mi Calm Calm - N/A   Mostly Cloudy
4:53 AM 41.0 °F - 37.9 °F 89% 30.11 in 8.0 mi Calm Calm - N/A   Scattered Clouds
5:53 AM 39.9 °F 37.8 °F 37.0 °F 89% 30.12 in 8.0 mi North 3.5 mph - N/A   Clear
6:53 AM 39.0 °F - 36.0 °F 89% 30.13 in 8.0 mi Calm Calm - N/A   Clear
7:53 AM 41.0 °F 39.0 °F 37.9 °F 89% 30.14 in 8.0 mi West 3.5 mph - N/A   Clear
8:53 AM 48.9 °F - 39.0 °F 69% 30.15 in 10.0 mi Calm Calm - N/A   Clear
9:53 AM 50.0 °F - 37.9 °F 63% 30.15 in 10.0 mi WNW 9.2 mph - N/A   Clear
10:53 AM 52.0 °F - 39.0 °F 61% 30.16 in 10.0 mi WNW 4.6 mph - N/A   Clear
11:53 AM 54.0 °F - 37.9 °F 55% 30.16 in 10.0 mi WNW 6.9 mph - N/A   Clear
12:53 PM 55.9 °F - 37.9 °F 51% 30.14 in 10.0 mi WSW 8.1 mph - N/A   Clear
1:53 PM 57.0 °F - 37.9 °F 49% 30.13 in 10.0 mi West 12.7 mph 17.3 mph N/A   Clear
2:53 PM 57.0 °F - 37.0 °F 47% 30.14 in 10.0 mi WSW 12.7 mph - N/A   Clear
3:53 PM 55.9 °F - 39.9 °F 55% 30.13 in 10.0 mi West 15.0 mph - N/A   Clear
4:53 PM 55.0 °F - 37.9 °F 53% 30.14 in 10.0 mi WSW 13.8 mph - N/A   Clear
5:53 PM 52.0 °F - 39.0 °F 61% 30.16 in 10.0 mi SW 8.1 mph - N/A   Clear
7:53 PM 48.9 °F - 37.9 °F 66% 30.19 in 10.0 mi SW 4.6 mph - N/A   Clear
8:53 PM 46.9 °F - 37.0 °F 68% 30.20 in 10.0 mi Calm Calm - N/A   Clear
9:53 PM 45.0 °F 43.5 °F 36.0 °F 71% 30.20 in 10.0 mi NW 3.5 mph - N/A   Clear
10:53 PM 44.1 °F 42.5 °F 37.0 °F 76% 30.22 in 10.0 mi West 3.5 mph - N/A   Clear
11:53 PM 43.0 °F - 37.0 °F 80% 30.22 in 10.0 mi Calm Calm - N/A   Clear